Anderson, SC

7:38 PM EDT on April 19, 2018 (GMT -0400)
Anderson Regional

Weather History for KAND - January, 2014

Change the Weather History Date:

Wednesday, January 1, 2014

  Actual Average Record
Temperature  
Mean Temperature 39 °F -  
Max Temperature 48 °F 54 °F 77 °F (1952)
Min Temperature 30 °F 37 °F 12 °F (1984)
Degree Days  
Heating Degree Days 26    
Moisture  
Dew Point 31 °F    
Average Humidity 71    
Maximum Humidity 89    
Minimum Humidity 48    
Precipitation  
Precipitation 0.00 in - - ()
Sea Level Pressure  
Sea Level Pressure 30.29 in    
Wind  
Wind Speed 1 mph (SE)    
Max Wind Speed 5 mph    
Max Gust Speed -    
Visibility 10 miles    
Events      
Averages and records for this station are not official NWS values.
T = Trace of Precipitation, MM = Missing Value Source: NWS Daily Summary

Daily Weather History Graph

Daily Weather History Graph

Search for Another Location

Airport or City:

Astronomy

Jan. 01, 2014 Rise Set
Actual Time 7:37 AM EST 5:31 PM EST
Civil Twilight 7:09 AM EST 5:59 PM EST
Nautical Twilight 6:38 AM EST 6:30 PM EST
Astronomical Twilight 6:07 AM EST 7:01 PM EST
Moon 7:29 AM EST (1/1) 6:11 PM EST (1/1)
Length of Visible Light 10h 49m
Length of Day
9h 53m
New Moon, 0% of the Moon is Illuminated
Jan 1
New Moon
Jan 7
First Quarter
Jan 15
Full
Jan 24
Last Quarter
Jan 30
New

Hourly Weather History & Observations

Time (EST) Temp. Windchill Dew Point Humidity Pressure Visibility Wind Dir Wind Speed Gust Speed Precip Events Conditions
12:56 AM 34.0 °F - 30.0 °F 85% 30.37 in 8.0 mi Calm Calm - N/A   Clear
1:56 AM 34.0 °F - 30.9 °F 89% 30.37 in 6.0 mi Calm Calm - N/A   Clear
2:56 AM 34.0 °F - 30.0 °F 85% 30.35 in 10.0 mi Calm Calm - N/A   Clear
3:56 AM 35.1 °F - 28.0 °F 76% 30.34 in 10.0 mi Calm Calm - N/A   Clear
4:56 AM 34.0 °F - 28.0 °F 79% 30.34 in 10.0 mi Calm Calm - N/A   Clear
5:56 AM 33.1 °F - 28.9 °F 85% 30.35 in 10.0 mi Calm Calm - N/A   Clear
6:56 AM 32.0 °F - 27.0 °F 82% 30.36 in 10.0 mi Calm Calm - N/A   Clear
7:56 AM 30.0 °F - 27.0 °F 88% 30.38 in 10.0 mi Calm Calm - N/A   Clear
8:56 AM 37.9 °F 35.5 °F 28.0 °F 68% 30.38 in 10.0 mi ENE 3.5 mph - N/A   Clear
9:56 AM 42.1 °F 39.2 °F 26.1 °F 53% 30.37 in 10.0 mi East 4.6 mph - N/A   Clear
10:56 AM 45.0 °F - 26.1 °F 48% 30.39 in 10.0 mi Calm Calm - N/A   Clear
11:56 AM 46.9 °F - 28.0 °F 48% 30.35 in 10.0 mi Calm Calm - N/A   Clear
12:56 PM 48.0 °F - 28.9 °F 48% 30.31 in 10.0 mi SSW 4.6 mph - N/A   Clear
1:56 PM 48.9 °F - 30.0 °F 48% 30.27 in 10.0 mi ESE 4.6 mph - N/A   Clear
2:56 PM 48.9 °F - 30.9 °F 50% 30.26 in 10.0 mi Calm Calm - N/A   Clear
3:56 PM 48.0 °F - 32.0 °F 54% 30.24 in 10.0 mi SSE 3.5 mph - N/A   Clear
4:56 PM 46.9 °F - 33.1 °F 59% 30.23 in 10.0 mi Calm Calm - N/A   Mostly Cloudy
5:56 PM 45.0 °F - 35.1 °F 68% 30.23 in 10.0 mi Calm Calm - N/A   Clear
6:56 PM 42.1 °F - 35.1 °F 76% 30.24 in 10.0 mi Calm Calm - N/A   Scattered Clouds
7:56 PM 42.1 °F - 35.1 °F 76% 30.22 in 10.0 mi Calm Calm - N/A   Mostly Cloudy
8:56 PM 41.0 °F - 37.0 °F 86% 30.20 in 10.0 mi Calm Calm - N/A   Overcast
9:56 PM 42.1 °F - 36.0 °F 79% 30.19 in 10.0 mi Calm Calm - N/A   Overcast
10:56 PM 41.0 °F - 37.9 °F 89% 30.17 in 10.0 mi Calm Calm - N/A   Overcast
11:56 PM 43.0 °F - 37.9 °F 82% 30.15 in 10.0 mi Calm Calm - N/A   Overcast